FDX3637 YPAD-YSSY

Flight info

Callsign FDX3637
Flight time 1h 29m
Altitude 39000
Route AD H247 CULIN Y59 TESAT
Aircraft B77L/H-SDE1E2E3FGHIJ2J3J4J5M1RWXY/LB1D1

Departure

Time 2026-04-21 02:27
Airport Adelaide International Airport (YPAD)

Arrival

Time 2026-04-21 03:56
Airport Sydney Kingsford Smith International Airport (YSSY)
Time Latitude Longitude Altitude Speed Heading
2026-04-21 02:10 -34.93668 138.53089 25 ft 0 kts 119°
2026-04-21 02:18 -34.93663 138.53077 25 ft 2 kts 90°
2026-04-21 02:18 -34.93664 138.53057 32 ft 2 kts 59°
2026-04-21 02:18 -34.93682 138.53034 29 ft 4 kts 44°
2026-04-21 02:19 -34.93701 138.53016 30 ft 4 kts 24°
2026-04-21 02:19 -34.93725 138.53003 30 ft 3 kts 32°
2026-04-21 02:19 -34.93740 138.52988 29 ft 1 kts 95°
2026-04-21 02:19 -34.93754 138.52989 30 ft 4 kts 155°
2026-04-21 02:20 -34.93775 138.53008 27 ft 4 kts 139°
2026-04-21 02:20 -34.93797 138.53026 26 ft 2 kts 145°
2026-04-21 02:21 -34.93800 138.53028 25 ft 3 kts 145°
2026-04-21 02:21 -34.93848 138.53053 27 ft 9 kts 179°
2026-04-21 02:22 -34.93899 138.53010 28 ft 9 kts 225°
2026-04-21 02:22 -34.93975 138.52958 29 ft 16 kts 192°
2026-04-21 02:22 -34.94088 138.52932 29 ft 17 kts 184°
2026-04-21 02:22 -34.94203 138.52931 28 ft 17 kts 185°
2026-04-21 02:23 -34.94318 138.52919 30 ft 17 kts 166°
2026-04-21 02:23 -34.94399 138.53010 29 ft 8 kts 130°
2026-04-21 02:23 -34.94454 138.52996 29 ft 16 kts 220°
2026-04-21 02:23 -34.94572 138.52880 32 ft 20 kts 217°
2026-04-21 02:24 -34.94690 138.52773 28 ft 22 kts 218°
2026-04-21 02:24 -34.94813 138.52655 27 ft 22 kts 218°
2026-04-21 02:24 -34.94921 138.52552 31 ft 18 kts 218°
2026-04-21 02:24 -34.95022 138.52456 32 ft 18 kts 218°
2026-04-21 02:25 -34.95123 138.52359 26 ft 18 kts 218°
2026-04-21 02:25 -34.95226 138.52265 27 ft 18 kts 218°
2026-04-21 02:25 -34.95318 138.52157 30 ft 19 kts 230°
2026-04-21 02:25 -34.95421 138.52009 30 ft 26 kts 230°
2026-04-21 02:26 -34.95540 138.51838 28 ft 26 kts 230°
2026-04-21 02:26 -34.95661 138.51670 27 ft 26 kts 218°
2026-04-21 02:26 -34.95820 138.51710 25 ft 22 kts 133°
2026-04-21 02:26 -34.95800 138.51796 26 ft 23 kts 52°
2026-04-21 02:27 -34.95527 138.52193 27 ft 109 kts 50°
2026-04-21 02:27 -34.94864 138.53165 222 ft 172 kts 46°
2026-04-21 02:27 -34.94034 138.54350 958 ft 195 kts 44°
2026-04-21 02:27 -34.93086 138.55643 1659 ft 218 kts 46°
2026-04-21 02:28 -34.92156 138.57315 2037 ft 257 kts 60°
2026-04-21 02:28 -34.91726 138.59457 2878 ft 276 kts 89°
2026-04-21 02:28 -34.92314 138.61720 3914 ft 286 kts 125°
2026-04-21 02:28 -34.93754 138.63372 5019 ft 286 kts 142°
2026-04-21 02:29 -34.95155 138.65056 5895 ft 290 kts 122°
2026-04-21 02:29 -34.95865 138.67345 6968 ft 286 kts 95°
2026-04-21 02:29 -34.95959 138.69750 8009 ft 284 kts 89°
2026-04-21 02:29 -34.95989 138.72134 9150 ft 281 kts 88°
2026-04-21 02:30 -34.96014 138.74519 10120 ft 285 kts 88°
2026-04-21 02:30 -34.96035 138.76999 10697 ft 303 kts 88°
2026-04-21 02:30 -34.96059 138.79708 10917 ft 335 kts 88°
2026-04-21 02:30 -34.96091 138.82669 11159 ft 365 kts 89°
2026-04-21 02:31 -34.96133 138.85829 11831 ft 379 kts 89°
2026-04-21 02:31 -34.96182 138.89070 12795 ft 385 kts 89°
2026-04-21 02:31 -34.96234 138.92359 13848 ft 390 kts 89°
2026-04-21 02:31 -34.96289 138.95698 14761 ft 395 kts 89°
2026-04-21 02:32 -34.96341 138.99028 15629 ft 401 kts 89°
2026-04-21 02:32 -34.96395 139.02456 16532 ft 406 kts 89°
2026-04-21 02:32 -34.96449 139.05929 17418 ft 411 kts 89°
2026-04-21 02:32 -34.96503 139.09449 18269 ft 417 kts 90°
2026-04-21 02:33 -34.96556 139.13019 19043 ft 423 kts 90°
2026-04-21 02:33 -34.96608 139.16578 19804 ft 427 kts 90°
2026-04-21 02:33 -34.96660 139.20238 20497 ft 434 kts 90°
2026-04-21 02:33 -34.96710 139.23945 21212 ft 439 kts 90°
2026-04-21 02:34 -34.96760 139.27687 21953 ft 443 kts 90°
2026-04-21 02:34 -34.96810 139.31482 22629 ft 450 kts 90°
2026-04-21 02:34 -34.96860 139.35330 23300 ft 456 kts 90°
2026-04-21 02:34 -34.96909 139.39156 24019 ft 459 kts 90°
2026-04-21 02:35 -34.96957 139.43088 24492 ft 467 kts 91°
2026-04-21 02:35 -34.97004 139.47072 25118 ft 470 kts 91°
2026-04-21 02:35 -34.97050 139.51075 25696 ft 475 kts 91°
2026-04-21 02:35 -34.97096 139.55142 26213 ft 481 kts 91°
2026-04-21 02:36 -34.97141 139.59192 26776 ft 485 kts 91°
2026-04-21 02:36 -34.97185 139.63330 27332 ft 489 kts 91°
2026-04-21 02:36 -34.97227 139.67505 27891 ft 494 kts 91°
2026-04-21 02:36 -34.97268 139.71712 28405 ft 499 kts 91°
2026-04-21 02:37 -34.97295 139.74533 28740 ft 502 kts 91°
2026-04-21 02:37 -34.97335 139.78823 29218 ft 507 kts 91°
2026-04-21 02:37 -34.97373 139.83145 29678 ft 512 kts 91°
2026-04-21 02:37 -34.97423 139.88931 30273 ft 517 kts 91°
2026-04-21 02:38 -34.97458 139.93327 30705 ft 520 kts 91°
2026-04-21 02:38 -34.97482 139.96311 31029 ft 520 kts 91°
2026-04-21 02:38 -34.97515 140.00718 31527 ft 520 kts 91°
2026-04-21 02:38 -34.97546 140.05078 31998 ft 520 kts 91°
2026-04-21 02:39 -34.97576 140.09516 32462 ft 521 kts 91°
2026-04-21 02:39 -34.97604 140.13961 32912 ft 522 kts 91°
2026-04-21 02:39 -34.97631 140.18344 33376 ft 523 kts 91°
2026-04-21 02:39 -34.97656 140.22779 33829 ft 523 kts 91°
2026-04-21 02:40 -34.97679 140.27216 34274 ft 524 kts 91°
2026-04-21 02:40 -34.97702 140.31657 34636 ft 525 kts 92°
2026-04-21 02:40 -34.97724 140.36126 34947 ft 527 kts 92°
2026-04-21 02:40 -34.97758 140.40612 35266 ft 529 kts 92°
2026-04-21 02:41 -34.97800 140.45101 35593 ft 530 kts 93°
2026-04-21 02:41 -34.97846 140.49602 35923 ft 531 kts 93°
2026-04-21 02:41 -34.97892 140.54114 36244 ft 533 kts 93°
2026-04-21 02:41 -34.97934 140.58637 36568 ft 534 kts 94°
2026-04-21 02:42 -34.97974 140.63165 36893 ft 535 kts 94°
2026-04-21 02:42 -34.98011 140.67708 37187 ft 537 kts 94°
2026-04-21 02:42 -34.98045 140.72233 37245 ft 542 kts 94°
2026-04-21 02:43 -34.98108 140.81407 37264 ft 538 kts 94°
2026-04-21 02:43 -34.98158 140.90484 37273 ft 532 kts 94°
2026-04-21 02:44 -34.98207 140.99504 37277 ft 531 kts 94°
2026-04-21 02:44 -34.98249 141.08456 37276 ft 531 kts 94°
2026-04-21 02:45 -34.98285 141.17468 37283 ft 531 kts 94°
2026-04-21 02:45 -34.98314 141.26471 37282 ft 531 kts 94°
2026-04-21 02:46 -34.98335 141.35469 37280 ft 531 kts 94°
2026-04-21 02:46 -34.98349 141.44470 37279 ft 530 kts 94°
2026-04-21 02:47 -34.98358 141.53474 37291 ft 529 kts 94°
2026-04-21 02:47 -34.98359 141.62414 37286 ft 529 kts 94°
2026-04-21 02:48 -34.98354 141.71388 37288 ft 528 kts 94°
2026-04-21 02:48 -34.98343 141.80347 37285 ft 527 kts 93°
2026-04-21 02:49 -34.98325 141.89232 37292 ft 526 kts 93°
2026-04-21 02:49 -34.98300 141.98156 37292 ft 525 kts 93°
2026-04-21 02:50 -34.98270 142.07057 37294 ft 524 kts 93°
2026-04-21 02:50 -34.98232 142.15879 37297 ft 523 kts 93°
2026-04-21 02:51 -34.98188 142.24749 37300 ft 522 kts 93°
2026-04-21 02:51 -34.98138 142.33609 37298 ft 522 kts 93°
2026-04-21 02:52 -34.98082 142.42409 37296 ft 521 kts 93°
2026-04-21 02:52 -34.98019 142.51261 37298 ft 521 kts 93°
2026-04-21 02:53 -34.97950 142.60106 37297 ft 521 kts 92°
2026-04-21 02:53 -34.97875 142.68933 37302 ft 520 kts 92°
2026-04-21 02:54 -34.97793 142.77696 37301 ft 520 kts 92°
2026-04-21 02:54 -34.97705 142.86506 37299 ft 519 kts 92°
2026-04-21 02:55 -34.97611 142.95303 37300 ft 519 kts 92°
2026-04-21 02:55 -34.97510 143.04112 37302 ft 518 kts 92°
2026-04-21 02:56 -34.97404 143.12843 37300 ft 517 kts 92°
2026-04-21 02:56 -34.97232 143.25980 37302 ft 516 kts 92°
2026-04-21 02:57 -34.97110 143.34730 37306 ft 515 kts 92°
2026-04-21 02:57 -34.96982 143.43467 37305 ft 514 kts 92°
2026-04-21 02:58 -34.96848 143.52201 37310 ft 514 kts 92°
2026-04-21 02:58 -34.96708 143.60852 37304 ft 513 kts 92°
2026-04-21 02:59 -34.96562 143.69555 37313 ft 513 kts 92°
2026-04-21 02:59 -34.96410 143.78246 37308 ft 512 kts 91°
2026-04-21 03:00 -34.96252 143.86927 37308 ft 512 kts 91°
2026-04-21 03:00 -34.96088 143.95549 37307 ft 511 kts 91°
2026-04-21 03:01 -34.95918 144.04223 37309 ft 511 kts 91°
2026-04-21 03:01 -34.95741 144.12898 37308 ft 511 kts 91°
2026-04-21 03:02 -34.95560 144.21503 37307 ft 510 kts 91°
2026-04-21 03:02 -34.95371 144.30157 37307 ft 510 kts 91°
2026-04-21 03:03 -34.95177 144.38795 37312 ft 509 kts 91°
2026-04-21 03:03 -34.94978 144.47372 37313 ft 509 kts 91°
2026-04-21 03:04 -34.94772 144.55989 37305 ft 509 kts 91°
2026-04-21 03:04 -34.94559 144.64634 37317 ft 508 kts 91°
2026-04-21 03:05 -34.94341 144.73244 37325 ft 508 kts 91°
2026-04-21 03:05 -34.94117 144.81859 37322 ft 507 kts 91°
2026-04-21 03:06 -34.93887 144.90454 37325 ft 507 kts 91°
2026-04-21 03:06 -34.93654 144.98979 37318 ft 507 kts 91°
2026-04-21 03:07 -34.93413 145.07556 37308 ft 506 kts 91°
2026-04-21 03:07 -34.93171 145.16161 37322 ft 506 kts 91°
2026-04-21 03:08 -34.92929 145.24740 37314 ft 506 kts 91°
2026-04-21 03:08 -34.92683 145.33238 37321 ft 505 kts 91°
2026-04-21 03:09 -34.92428 145.41872 37321 ft 505 kts 91°
2026-04-21 03:09 -34.92169 145.50357 37318 ft 505 kts 91°
2026-04-21 03:10 -34.91903 145.58919 37325 ft 505 kts 91°
2026-04-21 03:10 -34.91631 145.67468 37324 ft 505 kts 91°
2026-04-21 03:11 -34.91353 145.76023 37321 ft 505 kts 91°
2026-04-21 03:11 -34.91067 145.84611 37324 ft 505 kts 90°
2026-04-21 03:12 -34.90779 145.93107 37323 ft 505 kts 90°
2026-04-21 03:12 -34.90483 146.01651 37328 ft 504 kts 90°
2026-04-21 03:13 -34.90182 146.10179 37327 ft 504 kts 90°
2026-04-21 03:13 -34.89872 146.18789 37434 ft 506 kts 90°
2026-04-21 03:14 -34.89718 146.23002 37790 ft 506 kts 90°
2026-04-21 03:14 -34.89560 146.27279 38230 ft 504 kts 90°
2026-04-21 03:14 -34.89401 146.31535 38638 ft 503 kts 91°
2026-04-21 03:14 -34.89240 146.35792 39002 ft 502 kts 91°
2026-04-21 03:15 -34.89078 146.40071 39251 ft 503 kts 91°
2026-04-21 03:15 -34.88915 146.44337 39281 ft 506 kts 91°
2026-04-21 03:15 -34.88586 146.52835 39323 ft 503 kts 91°
2026-04-21 03:16 -34.88249 146.61305 39334 ft 499 kts 90°
2026-04-21 03:16 -34.87909 146.69735 39330 ft 497 kts 91°
2026-04-21 03:17 -34.87566 146.78130 39329 ft 496 kts 90°
2026-04-21 03:17 -34.87216 146.86559 39343 ft 496 kts 90°
2026-04-21 03:18 -34.86862 146.94947 39336 ft 497 kts 90°
2026-04-21 03:18 -34.86501 147.03354 39336 ft 497 kts 90°
2026-04-21 03:19 -34.86135 147.11718 39342 ft 498 kts 90°
2026-04-21 03:19 -34.85762 147.20132 39341 ft 498 kts 90°
2026-04-21 03:20 -34.85382 147.28555 39344 ft 498 kts 90°
2026-04-21 03:20 -34.84995 147.37015 39341 ft 498 kts 90°
2026-04-21 03:21 -34.84603 147.45442 39340 ft 498 kts 90°
2026-04-21 03:21 -34.84208 147.53807 39341 ft 497 kts 90°
2026-04-21 03:22 -34.83874 147.60803 39342 ft 497 kts 90°
2026-04-21 03:22 -34.83468 147.69185 39339 ft 496 kts 90°
2026-04-21 03:23 -34.83058 147.77550 39341 ft 495 kts 90°
2026-04-21 03:23 -34.82639 147.85946 39344 ft 494 kts 90°
2026-04-21 03:24 -34.82220 147.94244 39343 ft 494 kts 90°
2026-04-21 03:24 -34.81793 148.02595 39344 ft 494 kts 90°
2026-04-21 03:25 -34.81361 148.10911 39226 ft 491 kts 90°
2026-04-21 03:25 -34.81142 148.15085 38951 ft 491 kts 90°
2026-04-21 03:25 -34.80923 148.19242 38566 ft 492 kts 90°
2026-04-21 03:26 -34.80706 148.23352 38177 ft 493 kts 90°
2026-04-21 03:26 -34.80484 148.27512 37781 ft 494 kts 90°
2026-04-21 03:26 -34.80261 148.31686 37389 ft 495 kts 90°
2026-04-21 03:26 -34.80035 148.35864 36994 ft 496 kts 90°
2026-04-21 03:27 -34.79805 148.40079 36597 ft 496 kts 90°
2026-04-21 03:27 -34.79575 148.44271 36197 ft 496 kts 90°
2026-04-21 03:27 -34.79344 148.48460 35785 ft 497 kts 90°
2026-04-21 03:27 -34.79111 148.52655 35330 ft 498 kts 89°
2026-04-21 03:28 -34.78877 148.56860 34883 ft 498 kts 90°
2026-04-21 03:28 -34.78640 148.61068 34421 ft 499 kts 90°
2026-04-21 03:28 -34.78402 148.65280 33891 ft 499 kts 89°
2026-04-21 03:28 -34.78163 148.69483 33499 ft 496 kts 89°
2026-04-21 03:29 -34.77926 148.73606 33209 ft 492 kts 89°
2026-04-21 03:29 -34.77687 148.77736 32917 ft 488 kts 89°
2026-04-21 03:29 -34.77449 148.81845 32585 ft 485 kts 89°
2026-04-21 03:29 -34.77211 148.85932 32241 ft 483 kts 89°
2026-04-21 03:30 -34.76975 148.89974 31916 ft 480 kts 89°
2026-04-21 03:30 -34.76737 148.94029 31598 ft 478 kts 89°
2026-04-21 03:30 -34.76499 148.98047 31294 ft 475 kts 89°
2026-04-21 03:30 -34.76261 149.02039 30996 ft 472 kts 89°
2026-04-21 03:31 -34.76021 149.06045 30683 ft 470 kts 89°
2026-04-21 03:31 -34.75786 149.09951 30382 ft 468 kts 89°
2026-04-21 03:31 -34.75548 149.13887 30030 ft 465 kts 89°
2026-04-21 03:31 -34.75310 149.17802 29682 ft 462 kts 89°
2026-04-21 03:32 -34.75072 149.21684 29369 ft 459 kts 89°
2026-04-21 03:32 -34.74835 149.25560 29033 ft 457 kts 89°
2026-04-21 03:32 -34.74598 149.29402 28709 ft 454 kts 89°
2026-04-21 03:32 -34.74359 149.33220 28379 ft 452 kts 88°
2026-04-21 03:33 -34.73899 149.36969 28067 ft 453 kts 80°
2026-04-21 03:33 -34.73030 149.40659 27771 ft 454 kts 74°
2026-04-21 03:33 -34.71831 149.44210 27475 ft 454 kts 66°
2026-04-21 03:33 -34.70364 149.47618 27174 ft 452 kts 64°
2026-04-21 03:34 -34.68864 149.50977 26880 ft 450 kts 64°
2026-04-21 03:34 -34.67368 149.54311 26595 ft 448 kts 64°
2026-04-21 03:34 -34.65882 149.57643 26313 ft 446 kts 64°
2026-04-21 03:34 -34.64429 149.60926 26045 ft 444 kts 65°
2026-04-21 03:35 -34.62974 149.64234 25769 ft 442 kts 65°
2026-04-21 03:35 -34.61528 149.67533 25497 ft 440 kts 65°
2026-04-21 03:35 -34.60085 149.70827 24927 ft 446 kts 65°
2026-04-21 03:35 -34.58608 149.74202 24090 ft 459 kts 65°
2026-04-21 03:36 -34.57111 149.77616 23304 ft 466 kts 65°
2026-04-21 03:36 -34.55581 149.81094 22671 ft 467 kts 65°
2026-04-21 03:36 -34.54046 149.84578 22075 ft 468 kts 65°
2026-04-21 03:36 -34.52513 149.88056 21556 ft 466 kts 65°
2026-04-21 03:37 -34.50984 149.91521 21111 ft 463 kts 64°
2026-04-21 03:37 -34.49467 149.94953 20706 ft 459 kts 64°
2026-04-21 03:37 -34.47963 149.98352 20295 ft 456 kts 64°
2026-04-21 03:37 -34.46467 150.01729 19888 ft 454 kts 64°
2026-04-21 03:38 -34.44998 150.05045 19504 ft 451 kts 64°
2026-04-21 03:38 -34.43517 150.08382 19125 ft 448 kts 64°
2026-04-21 03:38 -34.42042 150.11705 18752 ft 446 kts 64°
2026-04-21 03:38 -34.40575 150.15007 18362 ft 443 kts 64°
2026-04-21 03:39 -34.39115 150.18290 17981 ft 440 kts 64°
2026-04-21 03:39 -34.37666 150.21548 17613 ft 437 kts 64°
2026-04-21 03:39 -34.36228 150.24774 17249 ft 435 kts 64°
2026-04-21 03:39 -34.34808 150.27961 16890 ft 432 kts 64°
2026-04-21 03:40 -34.33384 150.31151 16515 ft 423 kts 64°
2026-04-21 03:40 -34.32036 150.34161 15912 ft 392 kts 64°
2026-04-21 03:40 -34.30779 150.36974 15449 ft 364 kts 64°
2026-04-21 03:40 -34.29630 150.39542 15010 ft 340 kts 64°
2026-04-21 03:41 -34.28528 150.42000 14607 ft 322 kts 64°
2026-04-21 03:41 -34.27466 150.44376 14253 ft 324 kts 64°
2026-04-21 03:41 -34.26383 150.46807 13841 ft 341 kts 64°
2026-04-21 03:41 -34.25218 150.49425 13395 ft 363 kts 64°
2026-04-21 03:42 -34.23999 150.52152 12916 ft 370 kts 64°
2026-04-21 03:42 -34.22773 150.54888 12448 ft 368 kts 64°
2026-04-21 03:42 -34.21570 150.57568 11988 ft 364 kts 64°
2026-04-21 03:42 -34.20374 150.60233 11552 ft 359 kts 64°
2026-04-21 03:43 -34.19193 150.62863 11115 ft 348 kts 64°
2026-04-21 03:43 -34.18075 150.65345 10934 ft 320 kts 64°
2026-04-21 03:43 -34.17056 150.67601 10680 ft 293 kts 64°
2026-04-21 03:43 -34.16115 150.69689 10374 ft 273 kts 64°
2026-04-21 03:44 -34.15245 150.71624 10206 ft 253 kts 65°
2026-04-21 03:44 -34.14371 150.73580 10146 ft 281 kts 65°
2026-04-21 03:44 -34.13390 150.75776 9857 ft 308 kts 64°
2026-04-21 03:44 -34.12367 150.78045 9579 ft 308 kts 64°
2026-04-21 03:45 -34.11353 150.80282 9054 ft 298 kts 64°
2026-04-21 03:45 -34.10367 150.82458 8539 ft 289 kts 64°
2026-04-21 03:45 -34.09418 150.84565 8023 ft 283 kts 65°
2026-04-21 03:45 -34.08492 150.86620 7533 ft 281 kts 65°
2026-04-21 03:46 -34.07552 150.88686 7053 ft 280 kts 64°
2026-04-21 03:46 -34.06618 150.90746 6560 ft 279 kts 65°
2026-04-21 03:46 -34.05717 150.92770 6112 ft 275 kts 65°
2026-04-21 03:46 -34.04625 150.94625 5966 ft 275 kts 44°
2026-04-21 03:47 -34.02955 150.95703 5972 ft 273 kts 14°
2026-04-21 03:47 -34.01098 150.95837 5976 ft 276 kts 356°
2026-04-21 03:47 -33.99137 150.95643 6018 ft 289 kts 355°
2026-04-21 03:47 -33.97118 150.95405 5832 ft 294 kts 353°
2026-04-21 03:48 -33.95072 150.95131 5339 ft 291 kts 353°
2026-04-21 03:48 -33.93107 150.94862 4782 ft 276 kts 353°
2026-04-21 03:48 -33.91263 150.94596 4352 ft 260 kts 353°
2026-04-21 03:48 -33.89502 150.94329 4037 ft 249 kts 353°
2026-04-21 03:49 -33.87750 150.94053 3994 ft 260 kts 353°
2026-04-21 03:49 -33.85993 150.93772 3955 ft 253 kts 353°
2026-04-21 03:49 -33.84280 150.93496 3949 ft 246 kts 353°
2026-04-21 03:49 -33.82570 150.93388 3963 ft 250 kts 10°
2026-04-21 03:50 -33.80984 150.94210 3987 ft 248 kts 41°
2026-04-21 03:50 -33.79951 150.95821 3698 ft 243 kts 71°
2026-04-21 03:50 -33.79628 150.97781 3240 ft 239 kts 89°
2026-04-21 03:50 -33.79549 150.99769 2981 ft 238 kts 92°
2026-04-21 03:51 -33.79487 151.01788 2970 ft 243 kts 92°
2026-04-21 03:51 -33.79430 151.03763 2949 ft 228 kts 92°
2026-04-21 03:51 -33.79374 151.05594 2940 ft 210 kts 92°
2026-04-21 03:51 -33.79328 151.07257 2930 ft 192 kts 92°
2026-04-21 03:52 -33.79274 151.08908 2970 ft 198 kts 93°
2026-04-21 03:52 -33.79213 151.10544 2950 ft 191 kts 95°
2026-04-21 03:52 -33.79504 151.11993 2955 ft 175 kts 130°
2026-04-21 03:52 -33.80372 151.12994 2982 ft 174 kts 142°
2026-04-21 03:53 -33.81349 151.13855 2815 ft 176 kts 154°
2026-04-21 03:53 -33.82473 151.14505 2390 ft 177 kts 156°
2026-04-21 03:53 -33.83563 151.15043 2022 ft 164 kts 167°
2026-04-21 03:53 -33.84618 151.15233 1705 ft 145 kts 170°
2026-04-21 03:54 -33.85591 151.15476 1552 ft 147 kts 170°
2026-04-21 03:54 -33.86606 151.15719 1489 ft 151 kts 170°
2026-04-21 03:54 -33.87632 151.15895 1232 ft 146 kts 175°
2026-04-21 03:54 -33.88642 151.16050 1011 ft 148 kts 172°
2026-04-21 03:55 -33.89643 151.16285 811 ft 146 kts 169°
2026-04-21 03:55 -33.90628 151.16548 610 ft 145 kts 168°
2026-04-21 03:55 -33.91589 151.16785 352 ft 134 kts 169°
2026-04-21 03:55 -33.92468 151.17038 157 ft 124 kts 169°
2026-04-21 03:56 -33.93270 151.17244 44 ft 112 kts 169°
2026-04-21 03:56 -33.93933 151.17417 31 ft 75 kts 168°
2026-04-21 03:56 -33.94319 151.17517 35 ft 53 kts 168°
2026-04-21 03:56 -33.94653 151.17605 34 ft 27 kts 160°
2026-04-21 03:57 -33.94745 151.17560 34 ft 16 kts 256°
2026-04-21 03:57 -33.94703 151.17418 35 ft 16 kts 330°
2026-04-21 03:57 -33.94594 151.17386 35 ft 16 kts 347°
2026-04-21 03:57 -33.94484 151.17358 35 ft 16 kts 348°
2026-04-21 03:58 -33.94374 151.17330 34 ft 16 kts 348°
2026-04-21 03:58 -33.94279 151.17305 34 ft 12 kts 348°
2026-04-21 03:58 -33.94120 151.17265 33 ft 31 kts 348°
2026-04-21 03:58 -33.93910 151.17210 33 ft 27 kts 348°
2026-04-21 03:59 -33.93732 151.17164 33 ft 26 kts 347°
2026-04-21 03:59 -33.93554 151.17116 34 ft 26 kts 345°
2026-04-21 03:59 -33.93510 151.17004 34 ft 19 kts 261°
2026-04-21 04:00 -33.93325 151.16901 34 ft 14 kts 13°
2026-04-21 04:00 -33.93278 151.16860 34 ft 9 kts 297°
2026-04-21 04:00 -33.93256 151.16810 34 ft 3 kts 298°
2026-04-21 04:00 -33.93252 151.16803 34 ft 0 kts 298°